Temperature
23 24 26 27 26 26 24 22 22 22 21 20 20 20 20 20 21 20 20 20 20 20 19 19 19 19 18 18 18 17 17 17 17 17 17 16 16 16 16 16 16 16 16 15
24 25 26 26 26 26 26 25 23 22 21 20 20 20 20 20 20 20 20 20 20 20 19 19 19 19 18 18 17 17 17 17 17 16 16 16 16 16 16 16 15 15 15 15
21 24 24 24 25 25 25 25 24 22 21 19 19 19 20 20 20 20 20 20 20 20 19 19 19 19 18 18 17 17 17 16 16 16 16 16 16 15 15 15 15 15 15 15
20 23 23 22 23 25 25 24 23 22 21 20 20 20 21 21 21 21 20 20 20 19 19 19 18 18 18 17 17 17 16 16 16 16 16 15 15 15 15 15 15 14 14 14
18 20 21 23 24 25 23 22 22 21 20 20 20 20 19 21 21 21 21 20 20 19 19 18 18 18 18 17 17 16 16 16 16 16 15 15 15 15 15 14 14 14 14 13
18 20 21 21 23 24 23 21 21 20 20 19 20 18 18 20 21 21 21 20 19 19 18 18 18 17 17 17 16 16 16 16 15 15 15 15 14 14 14 14 14 13 13 13
18 19 20 21 23 24 22 20 20 20 20 20 19 19 19 20 20 20 20 19 19 18 18 17 17 17 17 16 16 16 16 15 15 15 14 14 14 14 14 13 13 13 12 12
17 18 19 21 22 21 19 20 20 20 20 20 20 19 19 19 19 19 18 18 18 18 17 17 17 16 16 16 16 15 15 15 14 14 14 14 14 13 13 13 13 12 12 11
17 17 18 20 20 21 21 20 20 20 21 21 19 18 18 18 18 18 18 17 17 17 16 16 16 16 16 15 15 15 15 14 14 14 13 13 13 13 13 13 12 12 11 11
16 16 17 19 20 20 21 21 20 21 20 20 19 18 17 17 17 17 17 17 16 16 16 15 15 15 15 15 15 14 14 14 13 13 13 13 12 12 12 12 12 11 11 10
15 15 16 17 19 19 19 20 19 19 19 19 18 17 17 16 16 16 16 16 16 15 15 15 15 14 14 14 14 14 14 13 13 13 12 12 12 12 11 11 11 11 11 10
14 15 14 16 17 18 19 19 19 19 18 18 18 17 16 16 16 15 15 15 15 14 14 14 14 14 14 13 13 13 13 12 12 12 12 12 11 11 10 10 10 10 10 10
16 16 16 16 17 18 18 18 18 18 18 17 16 16 16 15 15 15 14 14 14 14 13 13 13 13 13 13 13 13 12 12 12 11 11 11 11 11 10 9 9 9 9 8
17 17 16 16 16 17 17 17 17 17 16 16 16 15 15 15 14 14 13 13 13 13 13 12 12 12 12 12 12 12 12 11 11 11 10 10 10 10 10 9 8 8 8 7
16 17 16 16 16 16 16 16 16 15 15 15 15 14 14 14 13 13 12 12 12 12 12 12 12 11 11 11 11 11 11 11 10 10 10 10 9 9 9 8 8 7 7 7
16 16 16 16 16 15 15 15 15 14 14 14 14 13 13 13 12 12 12 11 12 12 11 11 11 11 11 11 10 10 10 10 10 9 9 9 9 9 8 8 8 7 7 6
16 15 15 15 15 15 15 15 15 14 13 13 13 12 12 12 12 11 11 11 11 11 11 11 10 10 10 10 10 10 9 9 9 9 9 9 8 8 8 8 7 7 7 7
16 16 16 16 15 15 14 14 14 13 13 13 12 12 11 11 11 11 11 10 10 10 10 10 10 10 10 10 10 9 9 9 9 9 8 8 8 8 8 7 7 7 7 6
16 15 15 15 14 14 14 14 13 13 12 12 12 11 11 11 10 10 10 10 10 10 10 10 10 9 9 9 9 9 9 9 8 8 8 8 8 8 7 7 7 7 7 6
15 15 14 14 14 14 13 13 13 12 12 12 11 11 10 10 10 10 10 10 10 10 10 9 9 9 9 9 9 9 9 9 8 8 8 8 8 8 7 7 7 7 7 7
14 14 14 13 13 13 13 12 12 12 11 11 11 11 10 10 10 10 10 9 9 9 9 9 9 9 9 8 8 9 9 8 8 8 8 8 8 8 8 7 7 7 7 7
13 13 13 13 12 12 12 12 12 11 11 11 10 10 10 10 9 9 9 9 9 9 9 9 9 9 9 9 9 9 9 9 8 8 8 8 8 8 8 7 7 7 7 7
13 13 12 12 12 12 11 11 11 11 11 10 10 10 10 9 9 9 9 9 9 9 9 9 9 9 9 9 9 9 9 9 9 8 8 8 8 8 8 7 7 7 7 7
12 12 11 11 11 11 11 10 10 10 10 10 10 10 10 9 9 9 9 9 9 9 9 9 9 9 9 9 9 9 9 9 9 8 8 8 8 8 8 8 8 7 7 7
11 11 11 11 11 11 10 10 10 10 10 10 9 9 9 9 9 9 9 9 9 8 9 9 8 8 9 9 9 9 9 9 9 9 9 8 8 8 8 8 8 8 7 7
11 10 10 11 10 10 10 10 10 10 10 10 9 9 9 9 9 9 9 9 9 9 8 8 8 8 8 9 9 9 9 9 9 9 9 9 8 8 8 8 8 8 8 7
10 10 10 10 10 10 10 10 10 10 10 9 9 9 9 9 9 9 9 9 9 9 9 9 9 9 9 9 9 9 9 9 9 9 9 9 9 8 8 8 8 8 8 8
Wind_Speed
8 7 4 2 4 3 5 9 9 10 12 14 14 14 12 11 10 10 8 8 9 8 7 7 7 6 6 6 6 6 6 5 4 4 4 4 4 4 4 5 5 5 5 5
2 1 1 2 5 4 4 5 6 8 7 9 11 10 11 12 14 13 9 9 9 9 9 9 8 7 7 7 6 6 7 6 5 5 5 5 5 5 6 5 5 6 6 6
2 1 3 3 5 3 5 4 8 10 10 11 11 13 14 13 12 13 11 9 9 9 8 8 8 8 8 7 7 7 7 6 6 6 6 5 6 6 6 6 6 6 6 7
3 3 4 9 5 3 1 2 4 8 12 17 13 9 7 10 12 12 11 9 8 8 7 6 6 7 7 7 7 7 7 7 7 8 7 6 7 6 6 6 6 6 7 7
4 4 4 6 5 2 2 3 1 10 13 12 12 8 4 4 9 11 11 10 8 7 8 7 7 7 8 8 7 7 6 6 6 8 8 8 7 6 6 7 7 7 7 8
4 4 6 7 5 1 5 1 1 10 15 13 10 6 4 5 9 9 9 9 9 8 8 7 6 8 9 8 7 6 5 5 6 7 8 8 8 7 7 8 8 8 8 8
4 4 6 6 4 3 4 7 4 8 11 11 6 6 8 9 9 9 9 10 10 10 8 6 6 8 8 7 6 5 5 6 6 6 7 8 8 7 8 9 9 9 9 8
5 4 7 5 2 4 6 4 7 8 9 10 10 12 11 11 10 9 10 10 10 9 7 5 6 8 7 6 5 6 7 7 6 6 7 8 9 9 9 10 10 10 9 8
6 6 5 2 4 4 7 8 6 7 9 13 14 12 11 10 10 9 9 9 8 9 7 5 4 6 7 5 6 7 8 7 6 7 7 7 8 9 9 8 8 8 8 8
1 1 1 4 6 5 6 8 8 10 11 13 13 13 12 11 9 9 8 8 8 8 7 5 4 4 5 5 6 8 8 7 7 7 8 7 6 6 7 7 8 8 8 9
2 1 5 5 3 6 8 10 11 10 9 12 14 12 11 10 9 8 7 6 7 7 6 5 5 5 4 6 8 9 8 8 7 8 9 8 7 6 5 4 6 9 8 9
3 4 3 1 1 5 10 9 10 12 10 10 12 12 11 9 7 8 7 6 7 6 6 5 5 5 4 5 7 9 9 8 7 8 8 8 9 9 14 10 12 12 11 10
4 3 4 4 3 5 7 8 10 11 11 11 10 11 10 9 7 7 7 7 7 6 6 6 6 5 4 5 7 8 9 8 7 8 8 8 8 9 10 10 14 13 12 13
5 6 5 4 5 7 9 9 11 12 11 10 10 11 10 9 8 8 7 7 7 8 7 7 7 5 5 6 8 9 9 10 9 7 7 8 8 8 8 9 9 6 8 11
3 5 7 7 8 8 9 11 12 11 10 10 9 10 10 10 9 8 7 7 8 8 7 7 7 6 5 7 9 9 8 8 8 8 7 8 8 8 8 8 8 7 6 6
6 7 9 9 9 9 9 11 11 9 8 9 9 9 9 9 9 8 7 7 8 8 7 7 7 6 6 8 9 8 7 12 10 8 8 8 8 8 7 8 8 7 6 6
8 7 7 8 8 8 8 8 9 9 9 10 9 9 9 9 9 8 7 6 7 7 7 7 7 6 7 8 8 7 7 9 12 9 8 8 7 7 7 7 7 7 6 6
9 9 10 10 10 9 9 9 9 10 9 10 11 10 9 9 9 9 8 8 9 8 6 6 7 7 7 7 6 6 6 6 6 7 7 7 7 7 7 7 8 7 5 5
8 9 9 10 10 10 9 10 9 9 10 10 11 10 9 9 9 9 9 9 9 8 5 6 9 7 6 7 7 5 6 7 7 6 7 9 8 7 7 7 7 7 7 6
7 9 10 10 10 10 10 10 10 10 9 10 10 10 10 9 9 9 8 6 4 5 6 7 7 6 6 6 7 5 6 7 7 6 6 6 7 7 7 7 7 7 7 6
9 10 11 11 10 9 9 10 11 11 10 10 10 10 10 9 8 8 8 6 3 5 7 8 6 5 5 6 7 5 5 6 6 6 6 7 7 7 7 7 7 7 7 6
9 10 11 11 11 10 8 9 10 11 11 10 10 10 10 9 8 7 5 4 5 7 6 5 4 5 6 7 5 5 5 6 6 6 6 6 7 7 7 7 7 7 7 6
8 10 11 11 12 11 10 9 10 10 11 11 10 10 9 8 7 7 5 4 5 7 5 4 6 8 8 5 4 5 5 6 6 6 6 6 6 7 7 7 7 7 7 7
9 10 10 11 11 11 10 8 8 8 8 8 8 9 9 7 5 3 5 7 9 8 5 6 9 8 6 4 4 4 4 5 5 5 6 6 6 6 6 7 7 7 7 8
9 10 10 11 10 8 8 9 9 8 8 7 7 7 6 5 6 5 6 7 8 7 4 5 6 6 4 3 4 4 4 4 5 6 6 6 6 6 6 7 7 7 7 7
9 9 8 8 7 7 6 6 6 6 7 6 5 5 5 5 6 6 5 6 7 6 4 3 3 3 2 3 3 4 4 4 5 5 6 6 6 7 6 7 8 7 7 7
10 9 8 7 6 6 6 5 6 5 6 7 6 5 5 6 6 6 6 5 4 4 3 3 3 3 3 3 3 3 3 3 4 4 5 5 5 5 6 7 6 6 7 7
Wind_Direction
193 199 185 227 270 240 192 191 187 203 183 191 184 170 164 164 155 153 160 161 159 154 148 145 145 146 146 143 143 142 138 139 147 143 136 129 125 122 118 120 125 122 121 122
198 218 90 294 285 283 248 202 177 156 192 191 173 159 160 160 154 154 163 163 157 152 150 152 155 153 148 145 144 137 135 138 133 125 122 119 113 106 101 100 102 103 105 111
215 328 50 278 252 252 265 230 170 183 195 162 164 171 168 161 159 158 159 155 153 153 154 155 156 153 153 150 141 135 135 135 132 127 120 116 116 107 104 100 98 97 96 98
141 89 217 243 251 211 242 271 186 164 160 161 158 151 150 157 156 154 149 143 145 151 148 146 142 138 139 138 139 136 134 137 135 129 125 119 115 113 108 103 101 98 96 98
125 174 260 290 292 210 152 330 117 138 142 135 121 93 78 149 150 149 146 146 147 149 138 134 136 133 123 122 125 126 131 139 141 139 135 130 127 123 116 110 101 97 99 100
131 157 218 247 275 220 109 341 271 139 143 144 129 130 180 159 133 129 127 131 131 125 118 127 135 127 122 125 123 127 134 136 135 137 135 133 130 124 114 109 106 102 95 94
162 195 244 255 287 62 127 210 196 144 146 147 149 161 150 128 116 118 122 121 119 116 118 125 128 125 126 129 134 136 126 119 118 126 130 131 125 119 115 112 106 100 95 87
162 185 240 281 65 149 188 164 138 132 135 130 121 116 116 115 112 112 112 112 114 114 114 113 119 125 127 131 132 124 120 115 113 118 125 128 124 120 119 118 113 108 102 93
186 204 238 257 141 144 135 128 130 133 132 130 126 126 124 118 117 114 112 111 110 113 109 99 108 126 135 138 131 126 123 122 119 115 113 120 126 129 126 123 123 121 117 110
81 34 66 80 91 95 111 120 126 131 132 132 130 131 128 123 120 116 112 113 112 112 110 104 95 98 122 131 131 129 129 127 122 119 113 107 109 119 128 133 133 131 129 125
78 78 50 40 73 113 106 103 106 110 119 129 127 127 125 123 122 118 113 111 113 115 120 119 111 109 113 129 132 128 127 125 121 118 116 106 92 83 105 104 136 139 140 139
201 222 157 181 320 109 110 111 117 115 107 113 122 123 119 119 120 118 115 112 110 110 118 122 119 114 111 129 135 135 133 129 125 123 120 116 111 90 65 80 91 99 112 122
185 170 131 123 82 80 97 111 113 114 119 118 113 116 118 119 114 111 111 111 112 112 112 114 113 112 115 125 129 130 132 129 124 124 125 124 123 121 110 80 75 84 100 111
135 113 99 100 99 89 93 96 97 99 102 110 115 116 115 113 113 114 117 118 115 112 108 108 107 107 108 114 117 119 121 124 126 127 126 123 121 121 123 124 117 94 86 104
133 129 135 125 112 108 106 105 102 104 108 108 113 117 121 123 123 121 120 118 115 113 112 113 111 108 109 112 114 117 120 124 124 125 122 121 121 119 119 120 122 122 114 107
139 128 128 130 132 128 121 121 120 125 127 124 121 121 125 125 123 121 120 124 125 124 122 119 119 121 119 117 116 116 120 129 130 128 126 126 126 128 129 131 132 135 141 145
140 144 146 148 145 141 138 137 134 134 130 127 126 122 120 120 118 118 119 120 121 121 124 125 125 124 121 122 122 124 125 132 133 129 131 134 136 137 139 140 143 147 154 164
164 166 163 157 152 145 139 133 135 137 135 135 133 129 130 133 133 130 127 121 114 107 109 122 127 127 127 128 128 127 128 131 136 136 135 136 137 139 142 145 150 149 151 157
152 149 144 141 142 142 141 140 140 137 136 137 138 139 137 134 132 130 128 126 126 127 134 133 132 127 127 134 132 129 131 133 133 134 136 141 141 143 148 151 153 155 157 159
143 137 129 127 128 135 140 140 140 137 137 137 133 130 128 129 130 129 126 125 139 150 148 141 136 136 141 146 138 135 135 138 141 141 140 146 150 155 158 161 161 162 166 171
136 132 128 126 125 128 136 138 137 135 134 133 134 136 134 131 130 129 128 127 138 137 138 135 135 142 147 149 146 145 146 147 150 153 155 157 158 159 161 164 168 171 175 180
125 126 128 126 124 121 123 128 131 132 132 132 132 131 130 129 127 122 123 139 149 140 135 136 141 147 146 141 143 148 153 155 157 157 158 158 158 159 163 167 172 178 181 185
115 116 120 125 125 121 117 120 126 131 133 136 137 137 137 138 140 138 138 149 145 138 134 139 144 142 139 135 140 144 148 149 152 156 159 159 161 164 167 171 176 178 180 185
110 113 118 119 117 118 122 124 121 122 124 129 135 138 137 135 130 131 138 146 146 137 134 144 144 140 135 131 133 136 147 155 160 163 167 167 170 173 174 176 181 185 186 187
111 113 115 117 118 122 123 122 118 117 120 122 125 129 135 140 142 146 140 142 145 137 136 145 146 142 134 140 148 152 164 179 177 173 175 176 179 180 181 181 183 185 188 192
108 108 109 112 117 120 121 120 123 128 128 126 126 129 128 126 128 131 134 143 149 147 148 156 161 158 158 159 164 164 170 176 177 178 179 182 185 184 186 190 191 192 193 194
97 97 98 99 97 105 111 115 117 121 126 129 128 129 131 133 135 139 140 146 156 161 166 171 171 172 176 177 185 190 188 185 185 187 186 184 182 185 191 192 194 193 190 191
Height
1461 1457 1456 1458 1459 1460 1468 1475 1484 1483 1483 1480 1478 1478 1481 1484 1487 1492 1494 1496 1498 1500 1502 1504 1506 1506 1507 1508 1508 1509 1510 1510 1511 1512 1513 1514 1515 1516 1517 1519 1519 1521 1523 1525
1458 1453 1454 1457 1455 1456 1459 1461 1467 1472 1476 1469 1472 1476 1479 1482 1485 1489 1492 1495 1497 1500 1502 1503 1504 1505 1506 1507 1508 1509 1509 1510 1511 1512 1512 1513 1514 1515 1516 1517 1518 1520 1521 1523
1470 1458 1458 1469 1458 1457 1457 1455 1460 1469 1468 1467 1473 1475 1477 1480 1483 1485 1489 1493 1496 1498 1501 1502 1503 1504 1505 1507 1508 1508 1509 1510 1511 1511 1512 1513 1514 1515 1516 1517 1518 1520 1521 1522
1472 1467 1480 1467 1449 1449 1452 1452 1451 1452 1456 1461 1465 1471 1476 1479 1481 1484 1487 1491 1495 1498 1500 1501 1503 1504 1505 1506 1507 1508 1508 1509 1510 1510 1512 1513 1514 1515 1516 1517 1519 1520 1521 1522
1478 1480 1473 1459 1448 1448 1453 1458 1452 1453 1457 1463 1467 1473 1478 1480 1481 1482 1485 1489 1493 1497 1498 1500 1502 1503 1504 1505 1506 1507 1508 1509 1510 1511 1511 1513 1514 1515 1516 1517 1518 1519 1520 1521
1474 1478 1481 1463 1446 1443 1450 1465 1455 1453 1457 1463 1466 1477 1480 1479 1480 1482 1485 1488 1491 1494 1497 1499 1501 1502 1503 1504 1505 1506 1507 1508 1509 1510 1511 1512 1513 1515 1516 1517 1518 1519 1520 1521
1472 1475 1468 1451 1444 1444 1464 1466 1455 1455 1457 1461 1464 1469 1474 1477 1479 1482 1485 1488 1490 1493 1496 1498 1499 1501 1502 1503 1504 1505 1507 1508 1508 1509 1510 1512 1513 1514 1515 1516 1518 1519 1520 1522
1470 1475 1472 1446 1444 1451 1454 1450 1452 1455 1458 1461 1464 1469 1473 1476 1479 1482 1485 1488 1490 1492 1495 1497 1498 1499 1501 1502 1503 1504 1505 1506 1507 1508 1510 1511 1512 1513 1515 1516 1517 1519 1520 1522
1460 1461 1450 1444 1444 1445 1447 1450 1453 1455 1459 1461 1465 1469 1473 1476 1480 1483 1485 1488 1490 1491 1493 1495 1496 1498 1499 1500 1501 1502 1504 1505 1506 1507 1508 1510 1511 1512 1514 1515 1517 1518 1520 1521
1455 1453 1449 1447 1446 1448 1449 1451 1454 1456 1459 1462 1465 1469 1473 1476 1480 1482 1485 1487 1489 1490 1492 1493 1495 1496 1498 1499 1500 1501 1502 1503 1505 1506 1507 1509 1511 1512 1513 1515 1516 1518 1519 1521
1456 1454 1452 1450 1450 1450 1452 1454 1457 1460 1462 1464 1466 1470 1473 1476 1480 1482 1484 1486 1487 1489 1490 1492 1493 1495 1496 1497 1498 1499 1501 1502 1503 1505 1507 1508 1510 1512 1514 1515 1517 1518 1520 1522
1458 1455 1454 1455 1454 1454 1454 1456 1458 1461 1464 1467 1468 1470 1474 1477 1480 1482 1484 1485 1487 1488 1490 1491 1492 1494 1495 1496 1497 1498 1499 1500 1502 1504 1506 1507 1509 1511 1514 1516 1518 1520 1522 1524
1451 1452 1453 1454 1456 1457 1456 1458 1460 1462 1464 1467 1469 1472 1475 1477 1480 1482 1483 1485 1486 1487 1489 1490 1491 1492 1494 1495 1496 1497 1498 1500 1502 1504 1505 1507 1509 1510 1512 1516 1519 1522 1524 1526
1451 1452 1454 1455 1456 1458 1459 1460 1461 1463 1466 1469 1471 1473 1476 1478 1480 1482 1483 1485 1486 1487 1488 1489 1490 1492 1493 1494 1496 1497 1499 1500 1502 1504 1505 1507 1510 1511 1513 1515 1518 1522 1525 1528
1452 1453 1454 1455 1458 1460 1461 1462 1463 1465 1467 1470 1472 1474 1476 1478 1480 1482 1484 1485 1487 1488 1488 1490 1491 1492 1493 1494 1496 1498 1499 1500 1503 1504 1506 1508 1510 1513 1515 1518 1520 1523 1526 1529
1453 1454 1455 1456 1458 1459 1460 1462 1464 1467 1469 1471 1472 1474 1477 1479 1481 1482 1484 1486 1487 1488 1489 1490 1492 1493 1494 1496 1497 1498 1500 1502 1504 1505 1507 1510 1512 1514 1517 1519 1522 1525 1528 1530
1451 1452 1454 1456 1457 1459 1461 1463 1465 1467 1469 1471 1473 1475 1478 1480 1481 1483 1484 1487 1488 1489 1491 1492 1493 1495 1496 1498 1499 1500 1502 1504 1506 1507 1509 1511 1514 1516 1519 1521 1524 1526 1529 1532
1448 1449 1452 1454 1456 1458 1461 1463 1465 1468 1470 1472 1474 1476 1479 1480 1482 1483 1486 1488 1490 1491 1493 1494 1495 1497 1498 1500 1501 1503 1504 1506 1508 1509 1511 1514 1516 1519 1521 1523 1526 1528 1531 1534
1446 1448 1451 1453 1456 1458 1460 1463 1466 1468 1470 1472 1474 1477 1479 1482 1483 1485 1487 1489 1490 1492 1494 1496 1497 1499 1501 1502 1504 1505 1506 1508 1510 1512 1514 1516 1519 1521 1523 1525 1527 1530 1533 1535
1444 1447 1449 1452 1455 1457 1460 1462 1465 1468 1470 1473 1475 1478 1480 1482 1485 1487 1489 1490 1492 1494 1495 1497 1499 1501 1503 1504 1506 1508 1509 1510 1512 1514 1516 1518 1520 1522 1524 1527 1529 1531 1534 1536
1443 1446 1449 1451 1454 1457 1460 1463 1465 1468 1471 1474 1476 1478 1481 1483 1486 1488 1490 1492 1494 1496 1497 1499 1501 1502 1504 1506 1508 1510 1511 1513 1514 1516 1517 1519 1521 1524 1526 1528 1530 1532 1534 1536
1443 1445 1448 1451 1454 1458 1461 1464 1467 1469 1472 1475 1478 1480 1482 1484 1487 1490 1492 1494 1495 1497 1499 1501 1502 1504 1506 1508 1509 1511 1513 1514 1516 1517 1519 1521 1523 1525 1527 1528 1530 1532 1534 1536
1444 1446 1449 1453 1455 1459 1463 1466 1469 1471 1474 1476 1479 1481 1483 1486 1488 1490 1493 1495 1497 1499 1500 1502 1504 1506 1508 1509 1511 1513 1514 1515 1517 1518 1520 1522 1523 1525 1527 1529 1530 1532 1533 1535
1446 1449 1451 1455 1457 1461 1464 1468 1471 1474 1476 1479 1481 1484 1486 1488 1490 1493 1495 1497 1499 1500 1502 1504 1505 1507 1509 1511 1512 1514 1515 1517 1518 1519 1521 1522 1524 1525 1527 1528 1530 1531 1533 1534
1448 1451 1454 1457 1460 1463 1466 1470 1473 1476 1479 1481 1484 1486 1488 1490 1492 1494 1496 1498 1500 1502 1504 1505 1507 1508 1510 1512 1513 1515 1516 1517 1519 1520 1521 1523 1524 1525 1526 1527 1529 1530 1531 1533
1452 1454 1457 1460 1463 1467 1470 1473 1475 1478 1480 1483 1486 1488 1490 1492 1494 1496 1498 1500 1501 1503 1505 1506 1508 1509 1511 1512 1514 1515 1517 1518 1518 1520 1521 1522 1523 1524 1525 1526 1527 1528 1529 1530
1456 1459 1462 1465 1468 1471 1473 1476 1478 1480 1482 1485 1487 1489 1491 1494 1495 1497 1499 1501 1503 1504 1506 1507 1509 1510 1511 1513 1514 1515 1516 1517 1518 1519 1520 1521 1522 1523 1523 1524 1525 1526 1527 1528